• In Belgien
  • Länderverzeichnis
  • Für 7 Tage
  • Wassertemperatur
  • Satellitenkarten
  • Wetterkarte
  • Widgets
  • user-avatar
    Anmelden

    Stündliche Wetter Newcastle

    Heute, 14 Dezember, Donnerstag

    Zeit Temperatur Niederschläge Wind Luftdruck Luftfeuchtigkeit
    00:00 +22°C° 0 mm 5 m/S 757 mmHg 66%
    01:00 +22°C° 0 mm 4 m/S 757 mmHg 68%
    02:00 +21°C° 0 mm 4 m/S 757 mmHg 68%
    03:00 +21°C° 0 mm 4 m/S 756 mmHg 67%
    04:00 +21°C° 0 mm 4 m/S 756 mmHg 67%
    05:00 +23°C° 0 mm 4 m/S 756 mmHg 60%
    06:00 +26°C° 0 mm 4 m/S 756 mmHg 54%
    07:00 +28°C° 0 mm 4 m/S 757 mmHg 47%
    08:00 +32°C° 0 mm 4 m/S 756 mmHg 40%
    09:00 +35°C° 0 mm 4 m/S 756 mmHg 33%
    10:00 +38°C° 0 mm 4 m/S 756 mmHg 26%
    11:00 +41°C° 0 mm 4 m/S 755 mmHg 23%
    12:00 +42°C° 0 mm 4 m/S 755 mmHg 20%
    13:00 +45°C° 0 mm 5 m/S 755 mmHg 17%
    14:00 +43°C° 0 mm 5 m/S 754 mmHg 18%
    15:00 +42°C° 0 mm 6 m/S 754 mmHg 20%
    16:00 +41°C° 0 mm 6 m/S 754 mmHg 22%
    17:00 +38°C° 0 mm 6 m/S 754 mmHg 30%
    18:00 +35°C° 0 mm 6 m/S 754 mmHg 37%
    19:00 +32°C° 0 mm 6 m/S 754 mmHg 45%
    20:00 +30°C° 0 mm 6 m/S 755 mmHg 48%
    21:00 +29°C° 0 mm 6 m/S 755 mmHg 52%
    22:00 +28°C° 0 mm 5 m/S 755 mmHg 56%
    23:00 +27°C° 0 mm 5 m/S 755 mmHg 57%

    Morgen, 15 Dezember, Freitag

    Zeit Temperatur Niederschläge Wind Luftdruck Luftfeuchtigkeit
    00:00 +26°C° 0 mm 4 m/S 755 mmHg 58%
    01:00 +26°C° 0 mm 4 m/S 755 mmHg 59%
    02:00 +26°C° 0 mm 3 m/S 756 mmHg 59%
    03:00 +26°C° 0 mm 3 m/S 756 mmHg 59%
    04:00 +26°C° 0 mm 2 m/S 756 mmHg 59%
    05:00 +26°C° 0 mm 3 m/S 757 mmHg 63%
    06:00 +26°C° 0 mm 4 m/S 757 mmHg 68%
    07:00 +26°C° 0 mm 4 m/S 758 mmHg 72%
    08:00 +27°C° 0 mm 4 m/S 758 mmHg 67%
    09:00 +29°C° 0 mm 4 m/S 758 mmHg 62%
    10:00 +30°C° 0 mm 4 m/S 758 mmHg 57%
    11:00 +32°C° 0 mm 4 m/S 758 mmHg 54%
    12:00 +33°C° 0 mm 3 m/S 757 mmHg 51%
    13:00 +33°C° 0 mm 3 m/S 757 mmHg 48%
    14:00 +33°C° 0 mm 3 m/S 757 mmHg 48%
    15:00 +33°C° 0 mm 3 m/S 757 mmHg 49%
    16:00 +33°C° 0 mm 3 m/S 756 mmHg 50%
    17:00 +30°C° 0,2 mm 3 m/S 757 mmHg 61%
    18:00 +28°C° 0,2 mm 3 m/S 757 mmHg 72%
    19:00 +26°C° 0,2 mm 2 m/S 758 mmHg 83%
    20:00 +25°C° 2,6 mm 3 m/S 758 mmHg 85%
    21:00 +25°C° 2,6 mm 4 m/S 759 mmHg 88%
    22:00 +23°C° 2,6 mm 4 m/S 760 mmHg 90%
    23:00 +23°C° 0,1 mm 4 m/S 759 mmHg 89%

    übermorgen, 16 Dezember, Samstag

    Zeit Temperatur Niederschläge Wind Luftdruck Luftfeuchtigkeit
    00:00 +22°C° 0,1 mm 4 m/S 758 mmHg 87%
    01:00 +22°C° 0,1 mm 3 m/S 757 mmHg 86%
    02:00 +21°C° 0 mm 3 m/S 757 mmHg 86%
    03:00 +21°C° 0 mm 3 m/S 757 mmHg 87%
    04:00 +21°C° 0 mm 4 m/S 757 mmHg 87%
    05:00 +24°C° 0 mm 3 m/S 758 mmHg 81%
    06:00 +26°C° 0 mm 3 m/S 758 mmHg 74%
    07:00 +28°C° 0 mm 3 m/S 759 mmHg 67%
    08:00 +31°C° 0 mm 3 m/S 759 mmHg 56%
    09:00 +35°C° 0 mm 3 m/S 759 mmHg 46%
    10:00 +38°C° 0 mm 3 m/S 759 mmHg 35%
    11:00 +38°C° 0 mm 3 m/S 758 mmHg 36%
    12:00 +37°C° 0 mm 4 m/S 758 mmHg 37%
    13:00 +37°C° 0 mm 4 m/S 758 mmHg 38%
    14:00 +36°C° 0,1 mm 4 m/S 757 mmHg 43%
    15:00 +35°C° 0,1 mm 4 m/S 757 mmHg 47%
    16:00 +34°C° 0,1 mm 4 m/S 757 mmHg 52%
    17:00 +30°C° 3,2 mm 5 m/S 757 mmHg 64%
    18:00 +28°C° 3,2 mm 5 m/S 758 mmHg 77%
    19:00 +24°C° 3,2 mm 6 m/S 758 mmHg 90%
    20:00 +25°C° 0,6 mm 5 m/S 759 mmHg 89%
    21:00 +25°C° 0,6 mm 4 m/S 759 mmHg 88%
    22:00 +24°C° 0,6 mm 3 m/S 760 mmHg 87%
    23:00 +24°C° 0,4 mm 3 m/S 760 mmHg 88%

    17 Dezember, Sonntag

    Zeit Temperatur Niederschläge Wind Luftdruck Luftfeuchtigkeit
    00:00 +23°C° 0,4 mm 2 m/S 759 mmHg 89%
    01:00 +23°C° 0,4 mm 2 m/S 759 mmHg 89%
    02:00 +23°C° 0,1 mm 2 m/S 759 mmHg 92%
    03:00 +21°C° 0,1 mm 2 m/S 759 mmHg 94%
    04:00 +21°C° 0,1 mm 2 m/S 759 mmHg 96%
    05:00 +23°C° 0 mm 2 m/S 759 mmHg 91%
    06:00 +25°C° 0 mm 2 m/S 760 mmHg 87%
    07:00 +26°C° 0 mm 2 m/S 760 mmHg 82%
    08:00 +28°C° 0 mm 2 m/S 760 mmHg 71%
    09:00 +31°C° 0 mm 2 m/S 760 mmHg 60%
    10:00 +35°C° 0 mm 2 m/S 760 mmHg 48%
    11:00 +35°C° 0 mm 3 m/S 760 mmHg 48%
    12:00 +35°C° 0 mm 3 m/S 759 mmHg 47%
    13:00 +35°C° 0 mm 3 m/S 759 mmHg 47%
    14:00 +35°C° 0 mm 4 m/S 758 mmHg 49%
    15:00 +34°C° 0 mm 5 m/S 758 mmHg 51%
    16:00 +34°C° 0 mm 5 m/S 757 mmHg 53%
    17:00 +30°C° 1 mm 5 m/S 758 mmHg 64%
    18:00 +27°C° 1 mm 4 m/S 759 mmHg 76%
    19:00 +25°C° 1 mm 3 m/S 759 mmHg 88%
    20:00 +23°C° 0,1 mm 4 m/S 760 mmHg 89%
    21:00 +23°C° 0,1 mm 4 m/S 760 mmHg 89%
    22:00 +23°C° 0,1 mm 5 m/S 760 mmHg 90%
    23:00 +23°C° 0 mm 4 m/S 760 mmHg 92%

    18 Dezember, Montag

    Zeit Temperatur Niederschläge Wind Luftdruck Luftfeuchtigkeit
    00:00 +22°C° 0 mm 4 m/S 759 mmHg 93%
    01:00 +22°C° 0 mm 3 m/S 759 mmHg 94%
    02:00 +22°C° 0 mm 3 m/S 759 mmHg 94%
    03:00 +22°C° 0 mm 3 m/S 759 mmHg 94%
    04:00 +22°C° 0 mm 3 m/S 759 mmHg 94%
    05:00 +24°C° 0 mm 3 m/S 759 mmHg 92%
    06:00 +23°C° 0 mm 4 m/S 759 mmHg 90%
    07:00 +25°C° 0 mm 4 m/S 759 mmHg 88%
    08:00 +28°C° 0 mm 4 m/S 759 mmHg 75%
    09:00 +31°C° 0 mm 3 m/S 758 mmHg 61%
    10:00 +36°C° 0 mm 3 m/S 758 mmHg 48%
    11:00 +37°C° 0 mm 4 m/S 758 mmHg 44%
    12:00 +38°C° 0 mm 4 m/S 757 mmHg 40%
    13:00 +41°C° 0 mm 5 m/S 757 mmHg 35%
    14:00 +40°C° 0,1 mm 5 m/S 756 mmHg 38%
    15:00 +39°C° 0,1 mm 6 m/S 756 mmHg 40%
    16:00 +38°C° 0,1 mm 6 m/S 756 mmHg 42%
    17:00 +34°C° 0,5 mm 6 m/S 756 mmHg 54%
    18:00 +30°C° 0,5 mm 6 m/S 756 mmHg 66%
    19:00 +26°C° 0,5 mm 7 m/S 756 mmHg 78%
    20:00 +24°C° 1,2 mm 6 m/S 757 mmHg 82%
    21:00 +24°C° 1,2 mm 6 m/S 757 mmHg 86%
    22:00 +23°C° 1,2 mm 5 m/S 757 mmHg 89%
    23:00 +22°C° 0,3 mm 5 m/S 756 mmHg 90%

    19 Dezember, Dienstag

    Zeit Temperatur Niederschläge Wind Luftdruck Luftfeuchtigkeit
    00:00 +22°C° 0,3 mm 6 m/S 756 mmHg 91%
    01:00 +22°C° 0,3 mm 6 m/S 755 mmHg 92%
    02:00 +22°C° 0 mm 5 m/S 755 mmHg 91%
    03:00 +22°C° 0 mm 5 m/S 755 mmHg 90%
    04:00 +22°C° 0 mm 4 m/S 754 mmHg 89%
    05:00 +25°C° 0 mm 4 m/S 755 mmHg 80%
    06:00 +27°C° 0 mm 4 m/S 755 mmHg 71%
    07:00 +29°C° 0 mm 3 m/S 755 mmHg 63%
    08:00 +33°C° 0 mm 4 m/S 755 mmHg 52%
    09:00 +36°C° 0 mm 4 m/S 755 mmHg 42%
    10:00 +40°C° 0 mm 4 m/S 755 mmHg 32%
    11:00 +41°C° 0 mm 5 m/S 754 mmHg 29%
    12:00 +43°C° 0 mm 5 m/S 753 mmHg 26%
    13:00 +45°C° 0 mm 6 m/S 753 mmHg 23%
    14:00 +45°C° 0 mm 6 m/S 752 mmHg 23%
    15:00 +45°C° 0 mm 6 m/S 752 mmHg 23%
    16:00 +45°C° 0 mm 7 m/S 751 mmHg 23%
    17:00 +41°C° 0 mm 6 m/S 752 mmHg 30%
    18:00 +39°C° 0 mm 6 m/S 752 mmHg 38%
    19:00 +35°C° 0 mm 6 m/S 752 mmHg 45%
    20:00 +34°C° 0 mm 6 m/S 752 mmHg 45%
    21:00 +33°C° 0 mm 5 m/S 753 mmHg 46%
    22:00 +33°C° 0 mm 5 m/S 753 mmHg 46%
    23:00 +30°C° 0,2 mm 4 m/S 753 mmHg 54%
    Mehr zeigen